Overview Statistics Trail Chart Weather Telemetry Raw packets
 

This is the latest recevied weather packets stored in our database for station/object K8RRT. If no packets are shown the sender has not sent any weather packets the latest 10 day(s).

<< 63 64 65 66 67 68 69 >>
Time Temp. Humidity Pressure Rain* Wind** Luminosity Snow
1788187449 25° C 94% 1016.8 hPa 0 mm - 124 W/m² -
1788187144 25° C 94% 1016.7 hPa 0 mm - 115 W/m² -
1788186839 25° C 96% 1016.9 hPa 0 mm - 102 W/m² -
1788186535 24.44° C 96% 1016.4 hPa 0 mm - 90 W/m² -
1788186245 23.89° C 98% 1016.8 hPa 0 mm - 79 W/m² -
1788185924 23.89° C 99% 1016.7 hPa 0 mm - 77 W/m² -
1788185619 23.89° C 99% 1016.5 hPa 0 mm - 90 W/m² -
1788185314 23.33° C 99% 1016.5 hPa 0 mm - 114 W/m² -
1788185008 23.89° C 99% 1016.3 hPa 0 mm - 161 W/m² -
1788184707 23.33° C 99% 1016.5 hPa 0 mm - 225 W/m² -
1788184402 22.78° C 99% 1016.4 hPa 0 mm - 258 W/m² -
1788184097 22.78° C 99% 1016.4 hPa 0 mm - 233 W/m² -
1788183794 22.78° C 99% 1016.3 hPa 0 mm - 180 W/m² -
1788183493 22.78° C 99% 1016.2 hPa 0 mm - 173 W/m² -
1788183193 22.78° C 99% 1016.4 hPa 0 mm - 176 W/m² -
1788182888 22.78° C 99% 1016.4 hPa 0 mm - 142 W/m² -
1788182583 22.22° C 99% 1016.4 hPa 0 mm - 115 W/m² -
1788182277 22.22° C 99% 1016.3 hPa 0 mm - 112 W/m² -
1788181974 21.67° C 99% 1016.3 hPa 0 mm - 104 W/m² -
1788181669 22.22° C 99% 1016.4 hPa 0 mm - 92 W/m² -
1788181364 22.22° C 99% 1016.2 hPa 0 mm - 78 W/m² -
1788181062 21.67° C 99% 1016.3 hPa 0 mm - 71 W/m² -
1788180759 22.22° C 99% 1016.4 hPa 0 mm - 68 W/m² -
1788180458 21.67° C 99% 1016.4 hPa 0 mm - 68 W/m² -
1788180155 21.67° C 99% 1016.2 hPa 0 mm - 68 W/m² -

* Rain latest hour (hover to see other rain measurements)
** Current wind speed in m/s (hover to see current wind gust speed)